Zurück zum Katalog

NIMBUS 2 DEB

AktivLEO
NORAD 37893·DEBRIS·🇺🇸 United States

Gestartet May 15, 1966 von Vandenberg Space Force Base

Loading…

Nächste Überflüge (nächste 24 Stunden)

TLE

AktuellSource: Space-Track

Epoche: Sep 14, 2026, 10:07 UTC

1 37893U 66040AY  26257.42201424  .00001176  00000-0  19156-2 0  9996
2 37893 100.5044 236.2702 0058535 316.8080 195.8196 13.49690903696576

Verfolge NIMBUS 2 DEB in Echtzeit mit AllMySat

Download on the App Store